CDT,Max TemperatureF,Mean TemperatureF,Min TemperatureF,Max Dew PointF,MeanDew PointF,Min DewpointF,Max Humidity, Mean Humidity, Min Humidity, Max Sea Level PressureIn, Mean Sea Level PressureIn, Min Sea Level PressureIn, Max VisibilityMiles, Mean VisibilityMiles, Min VisibilityMiles, Max Wind SpeedMPH, Mean Wind SpeedMPH, Max Gust SpeedMPH,PrecipitationIn, CloudCover, Events, WindDirDegrees
2012-9-1,92,80,67,68,65,62,93,66,38,30.02,29.96,29.91,10,10,8,16,8,22,0.00,4,,36
2012-9-2,93,79,64,67,62,58,84,61,38,29.99,29.91,29.84,10,10,10,15,7,18,0.00,2,,151
2012-9-3,86,78,70,72,68,66,90,75,59,29.94,29.87,29.83,10,10,10,20,6,25,0.01,5,Rain,115
2012-9-4,97,82,66,70,67,63,100,67,33,29.87,29.80,29.69,10,10,8,18,8,22,0.00,2,,168
2012-9-5,88,73,58,63,55,40,73,46,18,29.94,29.83,29.69,10,10,10,23,10,29,0.00,1,,348
2012-9-6,90,71,51,64,52,44,89,56,23,30.01,29.89,29.75,10,10,10,29,10,35,0.00,1,Fog,157
2012-9-7,78,66,53,65,54,43,78,58,37,30.12,29.95,29.72,10,10,10,25,12,32,T,4,Rain,339
2012-9-8,86,67,47,50,43,36,86,52,17,30.18,30.07,29.93,10,10,10,22,8,28,0.00,1,,317
2012-9-9,78,64,49,48,44,42,80,55,30,30.25,30.16,30.09,10,10,10,14,5,18,0.00,0,,6
2012-9-10,87,71,54,52,48,46,77,52,26,30.12,30.01,29.88,10,10,10,26,16,32,0.00,0,,165
2012-9-11,95,78,61,52,50,46,72,46,19,29.92,29.87,29.80,10,10,7,29,17,37,0.00,4,,167
2012-9-12,79,66,53,57,53,45,93,66,39,30.31,30.10,29.87,10,8,2,27,13,39,1.37,7,Rain-Thunderstorm,12
2012-9-13,68,60,51,53,49,47,89,69,48,30.44,30.37,30.29,10,10,7,18,6,23,0.02,7,Rain,32
2012-9-14,79,65,50,50,46,39,93,59,25,30.38,30.33,30.26,10,10,10,17,9,21,0.00,1,,169
2012-9-15,78,64,50,57,50,46,86,61,35,30.29,30.19,30.08,10,10,10,16,8,21,0.00,1,,162
2012-9-16,75,67,58,61,59,56,100,77,54,30.08,30.01,29.90,10,8,2,15,9,18,0.00,5,,176
2012-9-17,67,58,48,61,53,39,100,70,40,30.08,29.98,29.90,10,8,2,20,8,28,0.19,5,Fog-Rain,7
2012-9-18,70,55,40,42,39,34,92,60,27,30.15,30.06,29.94,10,10,9,16,6,20,0.00,1,Fog,128
2012-9-19,89,70,51,53,44,36,83,52,21,30.00,29.87,29.76,10,10,10,26,10,36,0.00,3,,163
2012-9-20,73,60,47,51,43,34,86,56,26,30.08,30.01,29.95,10,10,9,16,4,22,T,6,Rain,337
2012-9-21,76,62,47,50,41,32,77,49,21,29.92,29.87,29.81,10,10,10,28,9,37,0.00,3,,304
2012-9-22,64,52,40,43,32,25,82,53,23,30.31,30.21,29.95,10,10,10,20,9,24,0.00,1,,342
2012-9-23,68,51,33,44,34,30,89,58,26,30.39,30.30,30.22,10,10,10,8,2,10,0.00,4,,357
2012-9-24,73,60,46,52,43,37,83,57,31,30.21,30.01,29.84,10,10,10,14,5,17,0.00,5,,155
2012-9-25,86,67,48,54,48,43,83,53,23,29.91,29.84,29.80,10,10,7,12,4,15,0.00,3,,342
2012-9-26,80,62,44,44,37,26,71,43,15,30.16,30.04,29.89,10,10,10,9,7,10,0.00,4,,360
2012-9-27,78,58,38,45,34,21,79,46,12,30.24,30.18,30.12,10,10,10,9,3,10,0.00,3,,346
2012-9-28,76,58,39,51,43,35,85,54,23,30.22,30.16,30.11,10,10,10,8,1,10,0.00,3,,257
2012-9-29,79,61,42,52,45,41,100,64,28,30.20,30.12,30.03,10,10,6,9,1,10,0.00,1,,225
2012-9-30,81,64,46,52,46,42,93,61,28,30.04,29.97,29.90,10,10,7,7,1,9,0.00,6,,300